Zurück zum Katalog

STARLINK-30105

AktivKommunikationVLEO
NORAD 57433·PAYLOAD·🇺🇸 United States

Gestartet Jul 24, 2023 von Cape Canaveral Space Force Station

Loading…

Nächste Überflüge (nächste 24 Stunden)

TLE

AktuellSource: CelesTrak SupGP

Epoche: Sep 15, 2026, 01:56 UTC

1 57433C 23105D   26258.08104167 -.00039289  00000+0 -14230-2 0  2585
2 57433  43.0022  41.2514 0001626 265.6150 338.4963 15.27598250    13

Verfolge STARLINK-30105 in Echtzeit mit AllMySat

Download on the App Store